{"data":{"norad_id":59787,"epoch":"2026-05-25T00:29:08.451744Z","epoch_age_seconds":83419,"freshness":"FRESH","line1":"1 59787U 24093F   26145.02023671  .00000084  00000+0  12575-4 0  9998","line2":"2 59787  43.0020 137.4408 0000812 279.4822  80.5938 15.27577058114375","mean_motion":15.27577058,"eccentricity":8.12e-5,"inclination_deg":43.002,"raan_deg":137.4408,"arg_perigee_deg":279.4822,"mean_anomaly_deg":80.5938,"bstar":1.2575e-5,"rev_number":11437,"period_min":94.266930264411,"perigee_km":482.50077643385,"apogee_km":483.61503448649,"semimajor_km":6861.1949054602,"source":"CELESTRAK","updated_at":"2026-05-25T13:38:19.081105Z"}}